Regional Weather Roundup
Issued by NWS

Home | Current Version | Previous Version | Graphics & Text | Print | Product List | Glossary Off
Versions: 1 2 3 4 5 6 7 8 9 10 11 12 13 14 15 16 17 18 19 20 21 22 23 24 25 26 27 28 29 30 31 32 33 34 35 36 37 38 39 40 41 42 43 44 45 46 47 48 49 50

000
ASUS43 KDTX 210110
RWRMI
MICHIGAN HOURLY REGIONAL WEATHER ROUNDUP
NATIONAL WEATHER SERVICE DETROIT/PONTIAC MI
900 PM EDT MON OCT 20 2014

NOTE: "FAIR" INDICATES FEW OR NO CLOUDS BELOW 12,000 FEET WITH NO
SIGNIFICANT WEATHER AND/OR OBSTRUCTION TO VISIBILITY.

MIZ047>049-052>055-059>063-066>070-074>076-081>083-210200-
SOUTHEAST LOWER MICHIGAN

CITY           SKY/WX    TMP DP  RH WIND       PRES   REMARKS
ADRIAN         CLOUDY    52  49  89 W7        29.86S
ALMA           CLOUDY    50  43  77 NW9G16    29.90R
ANN ARBOR      LGT RAIN  51  48  89 SW5       29.84S FOG
BAD AXE        CLOUDY    48  48 100 N8        29.85R
CARO           CLOUDY    50  46  83 NW7       29.85R
DETROIT CITY   CLOUDY    57  48  72 W7        29.84R
DETROIT        CLOUDY    53  48  83 SW6       29.85R
FLINT          CLOUDY    54  49  83 NW10      29.86R
GROSSE ILE     CLOUDY    54  48  82 W5        29.83S
HILLSDALE      CLOUDY    53  51  93 W8        29.87R
HOWELL         CLOUDY    53  50  90 NW7       29.85R

CITY           SKY/WX    TMP DP  RH WIND       PRES   REMARKS
JACKSON        CLOUDY    52  50  93 NW6       29.87R
LAMBERTVILLE   MOCLDY    52  48  87 CALM      29.86S
LANSING        CLOUDY    53  46  77 N9        29.88R
LAPEER         CLOUDY    51  49  92 W3        29.84R
MASON          CLOUDY    52  48  86 NW8       29.86S
MONROE         LGT RAIN  52  50  93 W3        29.83S
MT. CLEMENS    CLOUDY    55  49  81 W5        29.81S
PONTIAC        LGT RAIN  51  49  92 N9        29.84R FOG
PORT HOPE        N/A     50  47  89 VRB3      29.83R
PORT HURON     CLOUDY    50  50 100 CALM      29.83S
TRI CITIES     CLOUDY    51  43  74 NW9       29.89R
TROY           RAIN      56  49  76 W3        29.85S
SAGINAW HB     CLOUDY    52  45  76 NW12      29.87R
$$
MIZ043>046-050>051-056>058-064>065-071>073-077>080-210200-
SOUTHWEST LOWER MICHIGAN

CITY           SKY/WX    TMP DP  RH WIND       PRES   REMARKS
BATTLE CREEK   CLOUDY    54  46  74 NW10      29.90R
BENTON HARBOR  CLOUDY    52  45  77 VRB6      29.94S
BIG RAPIDS     CLOUDY    47  47 100 NW5       29.92S
COLDWATER      CLOUDY    54  49  85 NW7       29.89R
FREMONT        RAIN      46  45  93 NW9       29.94R
HOLLAND        CLOUDY    53  43  68 N8        29.95R
GRAND RAPIDS   CLOUDY    51  43  74 NW10      29.92R
IONIA          CLOUDY    52  44  74 N12G17    29.89R
KALAMAZOO      CLOUDY    52  45  77 NW16      29.92R
LUDINGTON      DRIZZLE   47  46  93 N7        29.96R
MARSHALL       CLOUDY    53  48  83 NW7       29.88R
MOUNT PLEASANT CLOUDY    49  43  80 NW3       29.89S
MUSKEGON       LGT RAIN  49  44  83 NW7       29.96R
SOUTH HAVEN    CLOUDY    53  45  73 N15G21    29.94R
$$
MIZ016>042-210200-
NORTHERN LOWER MICHIGAN

CITY           SKY/WX    TMP DP  RH WIND       PRES   REMARKS
ALPENA         CLOUDY    47  44  90 NW6       29.86R
BEAVER ISLAND  CLOUDY    46  43  89 NW8G16    29.93R
BELLAIRE       CLOUDY    47  42  82 NW3       29.92R
CADILLAC       DRIZZLE   44  43  97 NW8       29.91R
CHARLEVOIX     CLOUDY    48  44  86 NW13G21   29.94R
FRANKFORT      DRIZZLE   48  42  80 N8G17     29.95R
GAYLORD        CLOUDY    45  41  86 VRB6      29.88R
GRAYLING       CLOUDY    46  45  95 W6        29.89S
HARBOR SPRINGS CLOUDY    48  42  81 NW5       29.91R
HOUGHTON LAKE  CLOUDY    46  42  86 NW9       29.89R
MANISTEE       MOCLDY    48  41  76 N7        29.95S
OSCODA         DRIZZLE   47  47  97 NW6       29.85S
PELLSTON       CLOUDY    47  43  86 NW9       29.90R
TRAVERSE CITY  DRIZZLE   47  43  86 NW12      29.92R
$$
MIZ007>008-015-210200-
EASTERN UPPER MICHIGAN

CITY           SKY/WX    TMP DP  RH WIND       PRES   REMARKS
KINROSS        CLOUDY    46  45  93 N9        29.89R
MACKINAC ISLAN CLOUDY    46  44  91 NW8G16    29.89R
NEWBERRY       CLOUDY    43  41  93 N8        29.92R
S. S. MARIE    CLOUDY    47  40  76 N10       29.89R
MUNISING         N/A     46  41  82 N15       29.97R
$$
MIZ004>006-011>014-085-210200-
CENTRAL UPPER MICHIGAN

CITY           SKY/WX    TMP DP  RH WIND       PRES   REMARKS
MANISTIQUE     CLOUDY    43  41  93 N10       29.95R
ESCANABA       CLOUDY    45  37  76 N10G18    29.99R
MENOMINEE      CLOUDY    46  39  76 N6        29.99R
SAWYER-GWINN   LGT RAIN  41  37  87 N13G21    29.99R
$$
MIZ001>003-009>011-084-210200-
WESTERN UPPER MICHIGAN

CITY           SKY/WX    TMP DP  RH WIND       PRES   REMARKS
IRON MOUNTAIN  CLOUDY    45  38  76 N12       30.00R
HOUGHTON       CLOUDY    42  35  76 N13       30.04R
COPPER HARBOR    N/A     44  39  82 NE22      30.04R
IRONWOOD       MOCLDY    45  43  93 NE3       30.04R
$$

ABBREVIATIONS USED IN REMARKS
   TC - TEMPERATURE IN CELSIUS
  WCI - WIND CHILL INDEX
   HX - HEAT INDEX
  VSB - VISIBILITY



USA.gov is the U.S. government's official web portal to all federal, state and local government web resources and services.